Skip Page Navigation
NASA JPL Caltech
NASA Logo - Jet Propulsion Laboratory + View the NASA Portal
+ Center for Near-Earth Object Studies
JPL Home Earth Solar System Stars & Galaxies Technology
JPL Solar System Dynamics
BODIES ORBITS EPHEMERIDES TOOLS PHYSICAL DATA DISCOVERY FAQ SITE MAP
JPL Small-Body Database Browser
Search: [ help ]  
14092 Gaily (1997 MC8)
Classification: Main-belt Asteroid          SPK-ID: 2014092
Ephemeris | Orbit Diagram | Orbital Elements | Mission Design | Physical Parameters | Discovery Circumstances | Close-Approach Data ]

[ hide orbit diagram ]

For accurate long-term ephemerides, please instead use our Horizons system.This orbit viewer was implemented using two-body methods, and hence should not be used for determining accurate long-term trajectories (over several years or decades) or planetary encounter circumstances.


Orbital Elements at Epoch 2459200.5 (2020-Dec-17.0) TDB
Reference: JPL 29 (heliocentric ecliptic J2000)
 Element Value Uncertainty (1-sigma)   Units 
e .03714175978727281 3.1891e-08  
a 2.703277827770391 1.1952e-08 au
q 2.602873332053082 8.5313e-08 au
i 1.316948458359131 4.2344e-06 deg
node 223.3776967225464 0.00014762 deg
peri 39.25864494644986 0.00015845 deg
M 140.1694027320721 5.8037e-05 deg
tp 2458568.400899335933
(2019-Mar-25.90089934)
0.00026103 TDB
period 1623.43330144616
4.44
1.0767e-05
2.948e-08
d
yr
n .2217522578102289 1.4707e-09 deg/d
Q 2.803682323487699 1.2396e-08 au
  Orbit Determination Parameters
   # obs. used (total)      1179  
   data-arc span      9993 days (27.36 yr)  
   first obs. used      1993-09-23  
   last obs. used      2021-02-01  
   planetary ephem.      DE441  
   SB-pert. ephem.      SB441-N16  
   condition code      0  
   norm. resid. RMS      .54748  
   source      ORB  
   producer      Otto Matic  
   solution date      2021-Apr-13 00:17:11  

Additional Information
 Earth MOID = 1.58563 au 
 Jupiter MOID = 2.2031 au 
 T_jup = 3.365 
[ show covariance matrix ]

Ephemeris | Orbit Diagram | Orbital Elements | Mission Design | Physical Parameters | Discovery Circumstances | Close-Approach Data ]

Physical Parameter Table
Parameter Symbol Value Units Sigma Reference Notes
absolute magnitude H 15.03   n/a MPCxxxxx  

14092 Gaily           Discovered 1997 June 29 by Spacewatch at Kitt Peak.
T. Dean Gaily (b. 1934) was an acclaimed professor in the physics department at the University of Western Ontario from 1969 to 1998 and did research in laser spectroscopy.
NOTE: some special characters may not display properly (any characters within {} are an attempt to place the proper accent above a character)
Reference: 20030614/MPCPages.arcLast Updated: 2005-04-26

[ show close-approach data ]
Alternate Designations
 1997 MC8 = 1998 XD19 
Ephemeris | Orbit Diagram | Orbital Elements | Mission Design | Physical Parameters | Discovery Circumstances | Close-Approach Data ]
ABOUT SSD CREDITS/AWARDS PRIVACY/COPYRIGHT GLOSSARY LINKS
FirstGov 2021-May-15 06:15 UT
(server date/time)  
NASA Home Page
Site Manager:   Ryan S. Park
Webmaster  Alan B. Chamberlin